Weather History for Wittering, United Kingdom

Change the Weather History Date:

Tuesday, January 15, 2013

  Actual Average Record
Temperature  
Mean Temperature 29 °F -  
Max Temperature 33 °F 43 °F 51 °F (1999)
Min Temperature 24 °F 34 °F 24 °F (2013)
Degree Days  
Heating Degree Days 36    
Moisture  
Dew Point 29 °F    
Average Humidity 93    
Maximum Humidity 100    
Minimum Humidity 82    
Precipitation  
Precipitation 0.04 in - - ()
Sea Level Pressure  
Sea Level Pressure 29.81 in    
Wind  
Wind Speed 9 mph ()    
Max Wind Speed 15 mph    
Max Gust Speed -    
Visibility 4.8 miles    
Events Fog , Rain , Snow    
Averages and records for this station are not official NWS values.
T = Trace of Precipitation, MM = Missing Value Source: Averaged Metar Reports

Daily Weather History Graph

Daily Weather History Graph

Search for Another Location

Airport:

Trip Planner

Search our weather history database for the weather conditions in past years. The results will help you decide how hot, cold, wet, or windy it might be!

Date:

Astronomy

Jan. 15, 2013 Rise Set
Actual Time 8:05 AM GMT 4:17 PM GMT
Civil Twilight 7:25 AM GMT 4:57 PM GMT
Nautical Twilight 6:42 AM GMT 5:40 PM GMT
Astronomical Twilight 6:01 AM GMT 6:21 PM GMT
Moon 9:24 AM GMT (1/15) 9:35 PM GMT (1/15)
Length of Visible Light 9h 31m
Length of Day
8h 11m
Waxing Crescent, 17% of the Moon is Illuminated
Jan 15
Waxing Crescent
Jan 18
First Quarter
Jan 27
Full
Feb 3
Last Quarter
Feb 10
New

Hourly Weather History & Observations

Time (GMT) Temp. Windchill Dew Point Humidity Pressure Visibility Wind Dir Wind Speed Gust Speed Precip Events Conditions
12:50 AM 32.0 °F 21.6 °F 30.2 °F 93% 29.62 in 6.2 mi North 15.0 mph - N/A   Mostly Cloudy
1:50 AM 32.0 °F 21.6 °F 32.0 °F 100% 29.65 in - NNW 15.0 mph - N/A Snow Snow Grains
2:50 AM 33 °F - 32 °F 95% 29.72 in 1 mi North 12.7 mph - - Snow Snow
2:50 AM 32.0 °F 22.5 °F 32.0 °F 100% 29.68 in 1.2 mi North 12.7 mph - N/A Snow Snow
3:50 AM 33.8 °F 24.8 °F 32.0 °F 93% 29.71 in - North 12.7 mph - N/A Snow Snow Grains
4:50 AM 32.0 °F 23.0 °F 30.2 °F 93% 29.74 in 6.2 mi NNW 11.5 mph - N/A   Scattered Clouds
5:50 AM 31 °F - 29 °F 89% 29.78 in 9 mi NNW 10.4 mph - - Rain Light Freezing Rain
5:50 AM 32.0 °F 23.6 °F 28.4 °F 87% 29.74 in 6.2 mi NNW 10.4 mph - N/A   Partly Cloudy
6:50 AM 30.2 °F 22.6 °F 28.4 °F 93% 29.77 in 6.2 mi NW 8.1 mph - N/A   Partly Cloudy
7:50 AM 30.2 °F 21.3 °F 28.4 °F 93% 29.77 in 4.3 mi NW 10.4 mph - N/A   Mostly Cloudy
8:50 AM 31 °F - 29 °F 91% 29.83 in 5 mi NW 9.2 mph - - Fog Fog
8:50 AM 30.2 °F 21.9 °F 30.2 °F 100% 29.80 in 5.0 mi NW 9.2 mph - N/A   Mostly Cloudy
9:50 AM 32.0 °F 24.2 °F 30.2 °F 93% 29.83 in 3.7 mi NW 9.2 mph - N/A   Mostly Cloudy
10:50 AM 32.0 °F 24.2 °F 30.2 °F 93% 29.83 in 3.7 mi NW 9.2 mph - N/A   Mostly Cloudy
11:50 AM 32 °F - 31 °F 92% 29.87 in 4 mi NW 10.4 mph - -   Unknown Precipitation
11:50 AM 32.0 °F 23.6 °F 30.2 °F 93% 29.83 in 3.7 mi NW 10.4 mph - N/A   Haze
12:50 PM 33.8 °F 25.8 °F 30.2 °F 87% 29.83 in 5.6 mi NW 10.4 mph - N/A   Haze
1:50 PM 33.8 °F 27.7 °F 30.2 °F 87% 29.83 in 6.2 mi NW 6.9 mph - N/A   Mostly Cloudy
2:50 PM 33 °F - 29 °F 82% 29.86 in 8 mi NNW 6.9 mph - -   Scattered Clouds
2:50 PM 33.8 °F 27.7 °F 30.2 °F 87% 29.83 in 6.2 mi NNW 6.9 mph - N/A   Partly Cloudy
3:50 PM 32.0 °F 26.4 °F 28.4 °F 87% 29.83 in 6.2 mi NNW 5.8 mph - N/A   Unknown
4:50 PM 30.2 °F 22.6 °F 28.4 °F 93% 29.86 in 5.6 mi NW 8.1 mph - N/A   Haze
5:50 PM 30 °F - 28 °F 90% 29.88 in 5 mi NW 8.1 mph - -   Light Haze
5:50 PM 30.2 °F 22.6 °F 28.4 °F 93% 29.86 in 5.0 mi NW 8.1 mph - N/A   Haze
6:50 PM 28.4 °F 21.2 °F 26.6 °F 93% 29.86 in 5.0 mi NW 6.9 mph - N/A   Mist
7:50 PM 28.4 °F 21.2 °F 26.6 °F 93% 29.86 in 3.7 mi NW 6.9 mph - N/A   Mist
8:50 PM 28 °F - 27 °F 95% 29.89 in 4 mi NW 9.2 mph - -   Mist
8:50 PM 28.4 °F 19.7 °F 26.6 °F 93% 29.86 in 3.7 mi NW 9.2 mph - N/A   Mist
9:50 PM 26.6 °F 19.1 °F 26.6 °F 100% 29.86 in 3.7 mi NNW 6.9 mph - N/A   Mist
10:50 PM 26.6 °F 19.1 °F 26.6 °F 100% 29.86 in 3.7 mi NNW 6.9 mph - N/A   Scattered Clouds
11:50 PM 25 °F - 24 °F 94% 29.88 in 4 mi North 5.8 mph - -   Mist
11:50 PM 24.8 °F 17.9 °F 24.8 °F 100% 29.86 in 3.7 mi North 5.8 mph - N/A   Mist